Regional Weather Roundup
Issued by NWS

Home | Current Version | Previous Version | Text Only | Print | Product List | Glossary On
Versions: 1 2 3 4 5 6 7 8 9 10 11 12 13 14 15 16 17 18 19 20 21 22 23 24 25 26 27 28 29 30 31 32 33 34 35 36 37 38 39 40 41 42 43 44 45 46 47 48 49 50
000
ASUS45 KBOU 240110
RWRCO

WEATHER ROUNDUP FOR COLORADO
NATIONAL WEATHER SERVICE PUEBLO CO
700 PM MDT MON APR 23 2018

NOTE: "FAIR" INDICATES FEW OR NO CLOUDS BELOW 12000 FEET WITH NO
SIGNIFICANT WEATHER AND/OR OBSTRUCTIONS TO VISIBILITY.

COZ001>005-013-030-031-240200-
...NORTHWEST COLORADO...

CITY           SKY/WX    TMP DP  RH WIND       PRES   REMARKS
CRAIG          CLOUDY    59  34  39 W5        30.09R
HAYDEN         CLOUDY    57  34  41 N10       30.10R
MEEKER         CLOUDY    65  20  17 NW12G25   30.07R
RABBIT EARS PA NOT AVBL
STEAMBOAT SPGS FAIR      57  32  39 NW9G16    30.10R
WALDEN         FAIR      46  30  53 N21G26    30.18R
$$

COZ006>008-011-240200-
...WEST CENTRAL VALLEYS...

CITY           SKY/WX    TMP DP  RH WIND       PRES   REMARKS
GRAND JUNCTION CLOUDY    75  24  15 W10       29.95S
MONTROSE       CLOUDY    72  14  11 N13       30.02R
EAGLE          CLOUDY    64  25  22 NW10      30.07S
RIFLE          CLOUDY    69  26  20 N8G17     30.00R
DELTA          NOT AVBL
NUCLA          FAIR      72  12  10 W12G21    30.06S
$$

COZ017>023-064>068-240200-
...SOUTHWEST COLORADO...

CITY           SKY/WX    TMP DP  RH WIND       PRES   REMARKS
DURANGO        CLEAR     68  10  10 SW14      30.09S
CORTEZ         MOSUNNY   72   6   7 W8        30.06S
PAGOSA SPRINGS FAIR      67   8  10 W13       30.15R
TELLURIDE      CLOUDY    58  13  17 W9        30.24S
WOLF CREEK PAS PTCLDY    43  16  33 S10G22    30.42F
$$

COZ009-010-012-014-032>034-037-058>063-240200-
...CENTRAL COLORADO...

CITY           SKY/WX    TMP DP  RH WIND       PRES   REMARKS
ASPEN          CLOUDY    60  20  21 N5        30.10F
BUENA VISTA    FAIR      61  14  15 NW6       30.12S
COPPER MTN     NOT AVBL
BERTHOUD PASS  FAIR      32  21  64 NW21G26   30.36S WCI  20
COTTONWOOD PAS MOCLDY    59  12  15 SW9       30.23S
GUNNISON       MOCLDY    62  22  21 SW14G26   30.13R
KREMMLING      CLOUDY    61  23  23 NW9G16    30.13R
LEADVILLE      MOCLDY    48  19  31 NW10G23   30.22F
MONARCH PASS   MOCLDY    41  16  36 W15G28    30.46R
SALIDA         FAIR      64  17  16 W7        30.17S
SUNLIGHT       CLOUDY    41  19  42 SW14G28   30.30S
WILKERSON PASS MOCLDY    45  10  24 W8G21     30.33R
$$

COZ069>075-240200-
...SAN LUIS VALLEY/SANGRE DE CRISTO MOUNTAINS...

CITY           SKY/WX    TMP DP  RH WIND       PRES   REMARKS
ALAMOSA        MOCLDY    63  20  19 SW14G21   30.11R
DEL NORTE      FAIR      62  19  19 SW7       30.14S
LA VETA PASS   PTCLDY    48  21  34 SW8       30.38F
SAGUACHE       NOT AVBL
$$

COZ035-036-038>040-240200-
...NORTHERN COLORADO FRONT RANGE...

CITY           SKY/WX    TMP DP  RH WIND       PRES   REMARKS
DENVER INTL AP CLOUDY    63  41  44 S10       29.99S
DMNS CITY PARK NOT AVBL
AURORA         LGT RAIN  62  42  47 E6        30.00S
FRONT RANGE AP MOCLDY    66  41  39 SE9G17    30.01R
ERIE MUNI ARPT FAIR      68  36  31 NE5       30.03R
BOULDER MUN AP FAIR      64  34  32 N5        29.99R
CENTENNIAL     CLOUDY    62  39  42 S13       30.02R
BROOMFIELD     MOCLDY    68  30  24 CALM      30.02R
LOVELAND       CLOUDY    63  43  48 N15       30.01R
LONGMONT       FAIR      67  33  27 CALM      30.00R
$$

COZ041-046-047-076>085-087-088-240200-
...PIKES PEAK/PALMER DIVIDE AND SOUTHERN FOOTHILLS...

CITY           SKY/WX    TMP DP  RH WIND       PRES   REMARKS
COLO. SPRINGS  MOCLDY    63  35  35 SE13      30.06F
A. F. ACADEMY  NOT AVBL
SCHRIEVER AFB  NOT AVBL
CHEYENNE MTN   NOT AVBL
ELLICOTT         N/A    N/A N/A N/A SE10      30.05S
FALCON         FAIR      58  31  36 S6        30.10S
FORT CARSON    PTCLDY    61  40  44 SE9       30.03S
LIMON          PTCLDY    62  38  40 SE17      30.03F
MONUMENT HILL  MOCLDY    54  37  54 S9        30.10S
CANON CITY     FAIR      68  37  32 NE8       30.00R
WALSENBURG     FAIR      70  27  19 SE12      30.02S
TRINIDAD       PTCLDY    70  26  19 SE12      30.01F
$$

COZ042>045-048>051-090-091-240200-
...NORTHEAST COLORADO...

CITY           SKY/WX    TMP DP  RH WIND       PRES   REMARKS
GREELEY ARPT   CLOUDY    66  40  38 NW13      29.97S
AKRON          PTCLDY    63  43  48 SE17      29.99F
BURLINGTON     CLEAR     62  42  47 S10       30.03F
WRAY           FAIR      64  37  36 S13       30.01S
YUMA           NOT AVBL
STERLING       NOT AVBL
HOLYOKE        FAIR      64  39  39 SE10      30.01S
FORT MORGAN    MOCLDY    67  37  32 S14G22    29.95F
$$

COZ086-089-092>099-240200-
...SOUTHEAST COLORADO...

CITY           SKY/WX    TMP DP  RH WIND       PRES   REMARKS
PUEBLO         FAIR      73  36  25 E10       29.97R
LA JUNTA       PTCLDY    75  33  21 E6        29.95S
LAMAR          CLEAR     70  42  36 SE16G23   29.96S
SPRINGFIELD      N/A     65  41  41 SE14      30.01S
$$





USA.gov is the U.S. government's official web portal to all federal, state and local government web resources and services.